Погода в Ореле

Погода в Ореле : погода сейчас, прогноз погоды и архив. Всё, что Вы хотите узнать о погоде в Ореле!

Хотите узнать прогноз погоды в Ореле? Тогда Вам сюда: Погода в Ореле

Поиск расширенной информации на нашем сайте:

Другие новости

Новости СМИ2

Главная страница сайта

Новости сайта

03.07.2017

Напоминаем, что на нашем специализированном сайте Метеоцентр.Азия вы можете получить высокодетализированные автоматические прогнозы погоды по пунктам России, СНГ и мира в авиационном формате (включающие направление и скорость ветра, видимость, явления погоды, количество и форму облачности, нижнюю и верхнюю границу облачности).


Погода в Ореле - сегодня

Время (UTC), дата Ветер
(°,м/с) 
Видим.   Явления Облачность Т
(°С)
Тd
(°С)
f(%) Тe
(°С)
Pmin
(гПа)
dP
(гПа)
Po
(мм)
O2
(г/м3)
Тmin Tmax R s Состояние
почвы
09 11.12.17 200 (Ю) 4000 м  слаб. ливневой дождь  10/10 300 м кучево-дожд. 
[Cb calv]
+1.1 +0 92 1006  2.2  736  295           
12 11.12.17 250 (З) 4{10}  10 км  {ливн. осадки} [диам. отлож. мокр. снега 2 мм]  9/9 300 м кучево-дожд. 
[Cb calv]
+0 -1.8 88 -2  1008.7  2.6  738  298           
15 11.12.17 180 (Ю) 10 км    8/3 600 м средняя 
[Sc|Ac trans]
-0.7 -2.9 85 -2  1011.4  2.5  740  299         
18 11.12.17 180 (Ю) 10 км    9/4 300 м средняя 
[St|Ac trans]
+0.1 -2.6 82 -2  1012.1  0.8  741  299    +2.3  0.9     
21 11.12.17 210 (ЮЗ) 4000 м  слаб. ливневой снег  10/10 300 м кучево-дожд. 
[Cb calv]
+0.1 -2 86 -2  1013.9  1.8  742  299           
00 12.12.17 170 (Ю) 10 км  {ливн. осадки}  10/10 600 м кучево-дожд. 
[Cb calv]
+0.2 -0.9 92 -1  1014  0.1  742  299           
03 12.12.17 160 (Ю) 10 км    10/10 600 м кучево-дожд. 
[Cb calv]
+0.3 -0.5 94 1014.1  0.1  742  299  -0.8    0.3     
06 12.12.17 160 (Ю) 10 км    10/10 600 м кучево-дожд. 
[Cb calv]
+0.6 -0.5 92 -1  1013.9  -0.2  742  298  -0.8    0.3     
09 12.12.17 160 (Ю) 10 км  слаб. ливневой дождь  10/10 600 м кучево-дожд. 
[Cb calv]
+1.8 +1.3 96 1013.5  -0.2  742  297           
12 12.12.17 170 (Ю) 2000 м  слаб. ливневой дождь  10/10 300 м кучево-дожд. 
[Cb calv]
+2.4 +1.9 97 +2  1012.8  -0.7  741  296           
15 12.12.17 160 (Ю) 10 км  дымка{ливн. осадки}  10/10 600 м кучево-дожд. 
[Cb calv]
+2.7 +2.4 98 +1  1012.6  -0.2  741  295         
18 12.12.17 170 (Ю) 4000 м  дымка{ливн. осадки}  10/10 600 м 
[Sc]
+3.8 +2.8 93 +3  1011.9  -0.6  741  294    +3.8     
21 12.12.17 180 (Ю) 10 км    10/10 600 м 
[Sc]
+4.4 +2.9 90 +3  1011.9  741  293           
00 13.12.17 160 (Ю) 10 км    10/10 600 м 
[Sc]
+3.5 +2.5 93 +3  1012.2  0.2  741  294           
03 13.12.17 160 (Ю) 4000 м  дымка  9/9 600 м 
[Sc]
+2.3 +1.5 94 +2  1012.2  741  296  +2.3         
06 13.12.17 200 (Ю) 2000 м  дымка  9/4 300 м верхняя 
[St|Ci fib]
+1.8 +1 94 +1  1013  0.8  742  297  +1.6         
09 13.12.17 200 (Ю) 4000 м  дымка  10/3 600 м средняя, верхняя 
[Sc|Ac trans|Cs]
+2.5 +1.2 91 +2  1013.4  0.4  742  296           
12 13.12.17 220 (ЮЗ) 4000 м  дымка  10/5 600 м средняя 
[Sc|As op]
+4 +2.5 90 +5  1013.6  0.3  742  294           
15 13.12.17 тихо ()   4000 м  слаб. ливневой дождь  10/10 300 м кучево-дожд. 
[Cb calv]
+3.4 +2.4 93 +3  1014.2  0.5  743  295      0.0     
18 13.12.17 360 (С) 4000 м  слаб. ливневой дождь  10/10 300 м кучево-дожд. 
[Cb cap]
+2.2 +1.7 96 +3  1014.3  0.1  743  297    +4.2     
21 13.12.17 010 (С) 4000 м  слаб. ливневой снег  10/10 300 м кучево-дожд. 
[Cb cap]
+0.3 +0 98 +1  1014  -0.5  742  299           
00 14.12.17 020 (С) 4000 м  слаб. ливневой снег [диам. отлож. мокр. снега 5 мм]  10/10 300 м кучево-дожд. 
[Cb cap]
+0.3 +0 98 1013.1  -0.9  742  298           
03 14.12.17 030 (СВ) 4000 м  слаб. ливневой снег [диам. отлож. мокр. снега 8 мм]  10/10 300 м кучево-дожд. 
[Cb cap]
+0.2 -0.1 98 +1  1011.4  -1.7  740  298  +0.1       
06 14.12.17 080 (В) 2000 м  слаб. ливневой снег [диам. отлож. мокр. снега 9 мм]  10/10 300 м кучево-дожд. 
[Cb cap]
+0.5 +0.2 98 +1  1009.9  -1.4  739  297  +0.1    равномерный
мокрый или
старый снег
100% 
09 14.12.17 тихо ()   1000 м  слаб. ливневой дождь  10/10 300 м кучево-дожд. 
[Cb cap]
+1 +0.7 98 +1  1008.8  -1  738  296           
Время (UTC), дата Ветер
(°,м/с) 
Видим.   Явления Облачность Т
(°С)
Тd
(°С)
f(%) Тe
(°С)
Pmin
(гПа)
dP
(гПа)
Po
(мм)
O2
(г/м3)
Тmin Tmax R s Состояние
почвы

Для получения пояснительной информации подведите курсор к названию столбца.

ПОГОДА в Ореле - архив

Всё, что Вы хотите узнать о погоде в Ореле - удобно и подробно!

Выберите нужную дату (начиная с 1 января 2015* года) и нажмите кнопку "Найти".
Будут отображены архивные сводки погоды по пункту Орел, начиная с указанной даты.


Отображать данные в формате CSV (для использования в таблицах Excel)


Внимание! Наш архив погоды предназначен исключительно для личного некоммерческого использования в познавательных целях. Если Вам необходимы официальные справки о состоянии погоды (для производственных, юридических, коммерческих и т.п. целей), обращайтесь в органы Росгидромета.

*Примечание: данная дата относится к архиву по метеостанциям СССР (Россия, СНГ, Балтия).
Архив по метеостанциям Зарубежной Европы и Азии (кроме Китая) хранится 10 дней, по другим регионам земного шара (Китай, Африка, Америка, Австралия, Океания) - 1 день.

Орел - район местоположения метеостанции


Название, широта, долгота, высота метеостанции:
Орел 52.9°ш. 36°д. 196 м над ур. моря [Российская Федерация]

Дополнительная информация

В oтличие oт бoльшинства пoгoдных сайтoв мы публикуем пoдрoбную метеoинфoрмацию в детальнoм прoфессиoнальнoм фoрмате.

Характеристики температуры и влажнoсти вoздуха измеряются на высoте 2 м в тени вдали oт зданий и деревьев.
Скoрoсть ветра измеряется на высoте 10 м (на урoвне рoста челoвека скoрoсть ветра ниже в 1.5-2 раза). Если метеoстанция нахoдится в гoрoде или в лесу, тo скoрoсть ветра занижена на 2-4 м/с пo сравнению с oткрытым местoм. Скoрoсть ветра над акватoриями крупных рек и oзёр, а также на вершинах хoлмoв на 2-5 м/с выше, чем в oбычных услoвиях.
Атмoсфернoе давление в разных тoчках местнoсти мoжет значительнo oтличаться oт давления на метеoстанции, в зависимoсти oт услoвий рельефа (при пoдъёме на 10 м давление пoнижается примернo на 1 мм рт.ст.).